DW4776 Weather Reports


time (UTC)temp
F
wind
direction
speed
knots
gust
knots
rain 1hr
in
rain 24hr
in
rain mn
in
humidity
%
barometer
mb
20260504044543 55 18 14.8 23.5 0.00 0.00 0.00 39 1011.2
20260504043037 57 28 14.8 21.7 0.00 0.00 0.00 37 1010.6
20260504041535 57 31 9.6 17.4 0.00 0.00 0.00 36 1009.8
20260504040058 57 5 9.6 14.8 0.00 0.00 0.00 35 1009.3
20260504034550 58 12 11.3 17.4 0.00 0.00 0.00 34 1009.0
20260504033037 58 8 12.2 17.4 0.00 0.00 0.00 35 1008.7
20260504031536 58 2 10.4 17.4 0.00 0.00 0.00 36 1008.4
20260504030055 59 17 13.0 18.2 0.00 0.00 0.00 34 1008.2
20260504024538 60 31 12.2 17.4 0.00 0.00 0.00 33 1008.0
20260504023037 62 12 13.0 18.2 0.00 0.00 0.00 30 1007.9
20260504021538 64 25 8.7 14.8 0.00 0.00 0.00 26 1007.9
20260504020037 66 11 8.7 17.4 0.00 0.00 0.00 23 1007.9
20260504014537 68 340 8.7 12.2 0.00 0.00 0.00 19 1007.8
20260504013048 69 355 13.0 17.4 0.00 0.00 0.00 17 1007.9
20260504011540 70 329 12.2 15.6 0.00 0.00 0.00 17 1007.9
20260504010037 70 335 11.3 15.6 0.00 0.00 0.00 16 1007.8
20260504004537 71 331 10.4 16.5 0.00 0.00 0.00 17 1007.9
20260504003037 71 330 12.2 17.4 0.00 0.00 0.00 17 1008.2
20260504001541 71 320 11.3 19.1 0.00 0.00 0.00 17 1008.4
20260504000037 71 332 12.2 18.2 0.00 0.00 0.00 17 1008.4
20260503234540 71 309 11.3 20.9 0.00 0.00 0.00 17 1008.5
20260503233039 71 307 12.2 20.0 0.00 0.00 0.00 17 1008.7
20260503231537 71 295 13.0 26.1 0.00 0.00 0.00 17 1008.7
20260503230038 71 314 15.6 24.3 0.00 0.00 0.00 17 1008.6
20260503224537 71 321 11.3 22.6 0.00 0.00 0.00 17 1009.0
20260503223036 71 316 10.4 21.7 0.00 0.00 0.00 18 1009.1
20260503221544 71 297 13.9 23.5 0.00 0.00 0.00 17 1009.0
20260503220036 71 307 13.9 20.9 0.00 0.00 0.00 18 1009.1
20260503214539 70 322 13.0 18.2 0.00 0.00 0.00 18 1009.3
20260503213043 70 290 14.8 20.9 0.00 0.00 0.00 18 1009.6
20260503211538 70 289 11.3 19.1 0.00 0.00 0.00 18 1009.7
20260503210040 69 275 13.0 20.9 0.00 0.00 0.00 19 1010.0
20260503204547 69 326 7.8 20.9 0.00 0.00 0.00 19 1010.2
20260503203042 69 309 12.2 22.6 0.00 0.00 0.00 19 1010.3
20260503201538 69 295 12.2 17.4 0.00 0.00 0.00 19 1010.4
20260503200037 69 297 15.6 21.7 0.00 0.00 0.00 20 1010.7
20260503194539 69 298 8.7 20.0 0.00 0.00 0.00 20 1010.9
20260503193052 67 314 12.2 20.0 0.00 0.00 0.00 22 1011.2
20260503191543 67 305 13.9 20.9 0.00 0.00 0.00 20 1011.4
20260503190046 67 290 13.0 22.6 0.00 0.00 0.00 20 1011.6
20260503184539 67 305 12.2 21.7 0.00 0.00 0.00 20 1011.6
20260503183049 67 266 12.2 19.1 0.00 0.00 0.00 19 1011.7
20260503181539 66 272 9.6 19.1 0.00 0.00 0.00 20 1011.9
20260503180049 68 256 12.2 17.4 0.00 0.00 0.00 19 1012.2
20260503174534 68 291 12.2 20.9 0.00 0.00 0.00 19 1012.4
20260503173053 67 268 12.2 17.4 0.00 0.00 0.00 19 1012.6
20260503171545 67 279 13.9 20.0 0.00 0.00 0.00 20 1012.6
20260503081544 42 274 4.3 6.1 0.00 0.00 0.00 73 1015.3
20260503071547 44 221 3.5 5.2 0.00 0.00 0.00 66 1015.5